Wind_Speed
21 20 20 19 19 19 20 20 20 18 18 19 20 19 19 20 19 19 18 17 17 17 18 17 16 15 16 15 14 13 14 14 13 13 13 14 14 14 14 13 13 13 13 13
21 19 18 18 19 20 20 20 19 19 20 21 21 21 21 21 21 19 17 17 17 16 17 16 16 16 16 16 15 14 14 15 14 14 14 14 15 15 15 14 14 14 14 14
20 18 19 19 20 20 21 19 19 19 20 20 20 20 20 20 21 19 17 17 17 16 17 17 18 18 17 17 16 15 15 15 15 14 14 14 15 15 15 15 15 15 15 15
19 19 20 20 20 21 20 19 19 19 19 19 19 19 18 19 20 20 19 18 17 18 18 18 18 19 19 18 17 16 15 15 15 15 15 15 15 15 15 15 15 15 15 15
18 18 19 20 19 19 19 19 19 19 20 20 20 21 18 19 19 19 18 18 19 19 18 18 19 19 19 19 18 17 16 16 16 16 16 16 15 15 16 16 16 16 16 16
17 18 19 19 19 19 19 20 20 20 21 21 19 21 19 18 18 19 19 18 18 18 18 18 19 19 19 18 17 17 17 17 17 16 16 16 16 16 17 17 18 17 16 17
18 19 19 19 20 20 20 21 22 22 22 21 18 21 19 17 18 19 18 18 17 17 18 18 19 19 18 18 18 18 18 17 17 17 17 17 18 18 18 19 19 18 17 17
19 20 20 20 20 20 21 22 23 23 23 21 19 21 19 18 18 19 19 18 18 18 18 17 18 18 18 18 18 18 18 18 17 18 19 19 20 20 20 20 19 18 18 18
19 19 19 19 19 19 21 23 23 23 23 23 22 21 19 18 18 17 18 19 18 17 17 17 17 17 17 17 17 17 18 18 18 19 19 20 20 20 20 20 19 19 19 19
20 20 18 18 20 21 22 22 23 24 24 24 24 22 21 19 19 19 19 19 19 18 17 16 17 17 17 17 17 17 18 18 18 19 19 19 19 20 20 19 19 18 18 19
21 20 19 19 20 22 22 23 24 25 25 25 25 22 21 20 19 21 20 20 19 19 19 18 18 17 19 18 18 18 18 18 18 19 19 19 19 19 19 19 19 19 20 20
23 22 20 19 18 20 22 23 24 26 26 25 25 23 20 20 21 20 20 20 20 20 19 19 20 20 20 19 19 18 18 18 18 19 19 19 18 18 19 19 19 19 20 20
23 23 22 20 20 20 22 23 25 26 27 27 27 25 22 21 21 21 22 20 19 18 19 20 20 20 20 19 19 19 18 19 19 19 19 19 19 19 19 19 19 19 20 21
23 23 23 22 22 21 22 23 24 26 27 28 27 26 23 23 22 22 22 19 19 19 19 19 21 20 20 21 19 18 18 19 19 20 20 20 20 20 20 20 20 20 21 21
25 24 24 23 22 22 23 22 24 26 26 27 26 26 24 22 21 21 21 21 21 20 20 20 19 19 19 18 18 18 19 19 20 20 20 20 20 20 20 21 21 21 21 21
25 25 24 24 23 23 23 23 23 24 24 25 25 25 24 23 23 22 21 20 20 20 20 19 19 20 19 19 20 20 20 20 20 20 20 20 20 20 20 20 20 20 20 20
24 24 24 23 23 24 24 24 23 23 23 24 25 24 24 24 24 24 23 21 20 20 20 20 19 19 19 20 21 22 21 20 20 21 21 21 20 20 20 19 19 18 18 19
21 22 22 22 23 25 24 24 23 23 23 24 24 23 23 23 23 22 21 21 21 21 21 20 19 18 19 20 21 22 22 22 21 21 21 21 21 21 21 20 19 18 18 18
21 21 22 22 22 22 23 24 23 23 23 22 22 22 22 22 22 22 22 21 21 22 20 20 20 20 20 20 20 21 21 22 22 22 21 21 21 20 20 20 19 19 19 19
22 22 22 22 22 21 20 21 22 23 23 22 22 22 22 22 22 23 22 21 21 21 22 21 20 20 20 19 20 20 20 20 21 22 21 21 20 20 20 20 20 20 20 20
22 22 22 22 23 22 20 20 21 22 23 22 22 23 23 23 22 22 22 23 22 21 21 21 21 21 20 20 20 20 20 20 20 21 21 21 20 21 21 21 20 20 21 21
20 21 21 22 23 22 23 23 22 22 21 22 22 22 23 23 23 23 23 23 22 21 21 21 22 22 21 20 20 20 20 20 20 19 20 21 21 20 20 21 20 20 21 21
21 21 21 21 22 22 22 23 23 22 22 21 22 22 23 23 23 23 23 23 22 21 21 21 21 22 21 20 21 20 20 20 20 19 19 20 20 20 20 20 20 20 20 20
22 23 22 21 20 21 21 22 22 23 23 23 23 23 23 23 23 23 23 23 23 21 21 21 21 21 21 20 20 21 20 20 19 19 19 19 19 19 19 19 19 19 20 20
22 23 22 22 22 22 22 22 22 22 23 22 23 24 23 23 23 23 23 22 22 22 21 21 20 20 21 20 20 21 21 20 19 18 18 19 19 19 18 18 18 19 20 20
21 22 23 23 23 24 23 23 23 23 23 23 23 23 23 23 24 24 24 24 23 22 21 21 21 21 20 21 21 20 21 20 19 19 19 19 19 19 19 19 20 20 21 21
Wind_Direction
242 243 244 247 249 249 248 249 251 253 252 253 257 259 261 262 263 266 269 271 273 276 278 282 287 291 293 295 295 290 287 285 283 283 285 288 289 286 284 282 281 281 280 281
241 243 244 243 243 245 246 249 251 251 253 255 259 259 263 260 260 265 266 270 272 274 274 278 282 287 289 289 289 288 286 283 282 282 284 286 287 286 282 279 280 282 281 280
246 244 242 240 242 244 247 251 253 255 256 256 261 260 259 258 260 261 264 264 268 272 270 274 280 283 284 283 283 282 283 281 281 282 284 284 284 284 281 277 277 278 279 280
245 242 240 241 244 246 247 251 254 256 259 255 256 258 255 261 262 264 267 267 268 269 266 270 276 280 280 279 279 280 281 282 281 280 281 281 282 282 280 276 275 278 281 280
244 243 243 244 245 245 247 251 253 255 257 254 252 258 257 258 261 264 266 268 267 263 264 268 273 275 277 278 276 278 281 280 277 276 278 280 280 281 279 277 277 279 278 278
243 243 243 245 243 244 246 248 250 252 254 255 258 263 261 260 264 263 262 266 267 260 261 266 272 273 274 274 275 278 278 275 274 275 277 279 280 279 277 277 277 277 276 277
245 243 245 245 243 242 245 248 252 252 255 258 261 262 263 267 268 269 270 270 266 264 262 265 269 272 272 273 274 276 275 273 273 274 277 279 279 278 277 277 277 274 274 275
251 245 247 247 248 246 246 249 253 257 259 260 259 264 267 267 269 270 270 270 266 269 265 264 265 270 272 273 274 274 274 274 275 276 276 277 278 279 279 276 274 272 273 274
256 251 249 248 247 245 246 249 253 256 259 261 260 263 262 263 266 266 266 268 270 269 268 266 266 270 272 273 275 275 275 276 277 277 278 277 278 279 280 278 274 273 272 272
254 253 247 245 245 245 248 251 250 253 257 260 261 262 264 263 265 269 267 267 269 270 272 272 270 272 273 272 274 276 277 278 279 280 280 277 277 280 281 277 277 277 275 273
253 253 248 244 245 248 248 248 250 254 257 260 263 262 265 268 268 267 268 266 266 266 269 273 273 272 270 269 271 274 277 279 280 282 281 278 279 280 281 279 279 277 276 277
252 254 251 250 251 250 249 250 250 251 255 257 260 261 264 268 270 267 266 264 265 265 266 268 272 272 271 269 271 273 277 279 281 282 279 278 278 279 279 280 281 280 278 277
251 254 254 252 250 249 248 247 248 252 255 256 258 262 263 266 267 267 267 264 264 265 265 267 270 272 267 267 269 271 274 277 279 280 278 278 278 279 279 279 280 280 277 276
251 254 253 253 254 252 248 248 249 252 255 257 258 261 263 267 266 268 268 262 263 265 267 269 272 270 266 265 267 269 273 276 277 279 277 277 277 278 279 279 279 278 278 276
251 251 252 253 254 254 253 252 252 256 257 258 260 262 264 265 266 268 270 264 263 266 267 271 273 274 268 268 268 269 273 277 278 276 276 276 276 277 278 279 279 278 277 274
252 252 251 252 252 253 251 251 256 257 258 258 260 262 262 262 263 264 264 266 266 267 269 270 273 272 270 270 269 270 272 275 277 275 275 276 277 277 278 278 278 278 276 275
252 252 250 250 250 251 252 252 252 254 255 258 258 258 260 262 260 262 264 265 265 271 272 271 270 269 270 269 268 268 269 272 275 275 275 276 278 277 280 281 278 278 278 277
248 249 249 249 250 251 253 254 253 255 256 258 260 259 259 259 259 261 265 266 266 267 270 272 271 269 273 271 271 271 272 273 275 274 274 275 277 277 278 277 275 274 276 275
248 250 251 252 252 254 252 252 255 257 258 259 260 255 256 258 259 261 262 265 266 263 266 271 271 271 276 276 275 274 275 275 275 274 273 272 274 276 276 275 272 273 274 276
245 248 252 254 255 256 253 252 256 259 259 260 260 257 255 257 259 261 261 263 266 266 267 269 270 272 274 275 275 276 276 277 276 272 269 271 272 274 274 275 275 273 275 278
243 245 249 252 254 257 255 256 258 258 258 259 261 259 256 256 259 263 263 261 263 265 267 266 267 269 272 274 276 275 275 277 278 273 267 268 271 273 273 273 274 273 274 277
246 248 251 254 254 256 256 256 260 263 263 261 260 260 258 257 260 261 262 262 265 267 267 265 264 267 270 273 274 275 278 278 278 274 270 269 270 271 270 271 271 272 274 275
250 250 251 255 256 258 258 257 259 263 265 262 258 258 257 258 262 263 263 263 267 266 267 266 265 267 269 270 273 274 276 276 276 274 272 270 269 268 268 269 270 271 273 276
253 254 253 254 256 258 259 258 260 262 264 264 262 260 260 261 262 264 263 262 264 265 266 267 265 266 267 269 269 272 273 273 273 271 271 272 268 267 269 270 271 273 275 278
256 255 255 256 256 257 260 261 262 263 263 264 264 262 262 262 262 261 260 263 265 266 267 266 265 264 264 265 266 271 273 273 272 271 271 270 269 270 271 273 275 277 278 280
256 254 255 257 256 258 262 263 263 262 262 261 262 262 261 261 263 264 264 267 269 270 268 267 266 266 266 266 266 270 273 274 273 272 270 270 271 272 273 274 274 275 278 280
Height
5850 5852 5854 5856 5856 5858 5858 5858 5859 5860 5861 5862 5862 5861 5862 5862 5863 5863 5864 5864 5864 5864 5864 5863 5863 5863 5862 5862 5861 5860 5860 5859 5859 5858 5858 5857 5856 5856 5855 5855 5854 5854 5853 5853
5846 5848 5850 5850 5851 5852 5853 5853 5854 5856 5856 5856 5856 5857 5857 5857 5857 5858 5859 5859 5860 5859 5859 5860 5860 5859 5859 5858 5857 5857 5856 5856 5855 5854 5854 5854 5853 5852 5851 5851 5850 5850 5850 5849
5841 5845 5844 5845 5846 5847 5848 5849 5850 5851 5851 5851 5851 5851 5852 5851 5852 5853 5854 5855 5855 5855 5855 5856 5856 5855 5855 5854 5853 5853 5853 5852 5851 5851 5851 5850 5849 5848 5847 5847 5846 5846 5845 5845
5837 5839 5839 5840 5841 5842 5843 5845 5845 5846 5846 5846 5848 5846 5848 5847 5848 5849 5850 5850 5851 5851 5851 5851 5851 5851 5850 5850 5849 5849 5849 5848 5847 5847 5847 5846 5845 5844 5844 5843 5842 5841 5841 5841
5833 5834 5834 5835 5837 5838 5839 5840 5841 5841 5841 5841 5842 5841 5843 5842 5843 5844 5845 5845 5846 5847 5847 5847 5846 5846 5846 5845 5845 5845 5844 5844 5843 5843 5843 5842 5841 5840 5840 5839 5838 5837 5837 5836
5828 5829 5829 5831 5832 5833 5834 5835 5835 5835 5835 5835 5837 5836 5836 5836 5838 5838 5839 5840 5840 5841 5841 5842 5841 5841 5841 5841 5840 5840 5840 5839 5839 5838 5838 5837 5837 5836 5835 5834 5833 5833 5832 5831
5822 5823 5824 5825 5826 5828 5828 5829 5829 5829 5829 5830 5832 5830 5831 5832 5833 5833 5834 5835 5835 5835 5836 5836 5836 5836 5835 5836 5836 5835 5835 5834 5834 5834 5833 5832 5832 5831 5830 5829 5828 5828 5827 5826
5816 5818 5820 5820 5821 5822 5823 5824 5824 5824 5825 5826 5826 5825 5827 5828 5828 5828 5828 5829 5830 5830 5830 5830 5830 5830 5830 5830 5830 5830 5830 5830 5829 5829 5828 5827 5826 5825 5824 5824 5823 5822 5822 5821
5811 5813 5815 5816 5816 5817 5817 5818 5819 5820 5820 5820 5820 5821 5822 5822 5822 5822 5823 5824 5825 5825 5825 5825 5825 5825 5825 5825 5825 5825 5825 5824 5824 5823 5822 5821 5820 5819 5819 5817 5817 5816 5816 5816
5806 5808 5810 5811 5812 5812 5812 5813 5814 5813 5813 5814 5815 5816 5817 5818 5817 5817 5818 5819 5820 5820 5820 5820 5820 5820 5819 5820 5820 5820 5820 5819 5818 5817 5816 5815 5814 5814 5813 5812 5811 5810 5810 5810
5800 5802 5804 5805 5805 5806 5807 5807 5807 5807 5808 5808 5809 5812 5812 5812 5813 5813 5813 5814 5814 5815 5815 5816 5815 5815 5814 5814 5814 5814 5814 5813 5812 5812 5810 5810 5809 5808 5808 5807 5806 5805 5805 5804
5794 5796 5797 5799 5801 5800 5801 5801 5801 5802 5802 5803 5803 5808 5807 5807 5807 5807 5808 5808 5808 5809 5810 5810 5810 5809 5808 5808 5808 5809 5808 5807 5807 5806 5806 5804 5804 5803 5802 5802 5801 5800 5799 5798
5789 5790 5791 5793 5795 5795 5794 5795 5795 5796 5797 5797 5798 5802 5802 5801 5801 5801 5801 5801 5801 5802 5803 5803 5803 5803 5802 5802 5802 5802 5802 5802 5801 5801 5800 5799 5798 5797 5797 5796 5795 5794 5793 5792
5782 5783 5785 5787 5787 5788 5788 5789 5790 5790 5791 5791 5792 5794 5795 5794 5794 5795 5795 5796 5796 5796 5796 5796 5797 5797 5796 5796 5796 5796 5796 5796 5795 5794 5794 5793 5792 5791 5790 5790 5789 5788 5787 5786
5775 5777 5778 5780 5781 5781 5782 5783 5784 5784 5784 5785 5787 5788 5789 5789 5789 5789 5789 5789 5789 5790 5790 5790 5789 5790 5790 5790 5790 5790 5790 5790 5789 5788 5788 5787 5786 5785 5784 5783 5782 5781 5780 5779
5768 5770 5772 5774 5775 5775 5776 5777 5777 5778 5778 5779 5780 5782 5783 5783 5783 5783 5783 5783 5783 5783 5784 5784 5784 5784 5784 5784 5784 5784 5784 5783 5782 5782 5781 5781 5780 5779 5778 5777 5776 5775 5774 5773
5762 5764 5765 5767 5768 5768 5769 5770 5771 5772 5772 5773 5774 5776 5776 5777 5777 5777 5778 5777 5778 5779 5779 5779 5778 5778 5777 5777 5778 5778 5778 5777 5776 5776 5775 5774 5773 5773 5772 5771 5770 5769 5768 5767
5755 5757 5759 5760 5762 5762 5765 5764 5764 5765 5765 5766 5767 5769 5770 5770 5771 5771 5771 5772 5772 5772 5773 5773 5772 5771 5771 5771 5771 5771 5771 5770 5769 5769 5768 5768 5767 5766 5766 5764 5764 5763 5762 5761
5749 5751 5752 5753 5753 5755 5757 5757 5757 5758 5759 5760 5761 5762 5763 5764 5764 5765 5765 5765 5766 5766 5766 5767 5766 5766 5765 5764 5764 5764 5764 5763 5763 5762 5762 5761 5761 5760 5759 5758 5757 5757 5756 5755
5742 5744 5746 5746 5747 5748 5751 5751 5750 5752 5752 5754 5754 5755 5756 5757 5759 5759 5759 5759 5760 5760 5760 5760 5760 5760 5759 5759 5759 5758 5758 5757 5756 5756 5755 5755 5755 5754 5753 5752 5751 5750 5749 5749
5735 5737 5739 5740 5740 5741 5743 5744 5745 5747 5747 5747 5747 5748 5750 5751 5752 5753 5753 5753 5753 5754 5754 5754 5754 5754 5754 5753 5753 5752 5751 5751 5750 5749 5749 5749 5748 5747 5747 5746 5745 5744 5743 5743
5729 5731 5732 5733 5734 5737 5737 5738 5739 5740 5740 5741 5741 5742 5743 5744 5745 5745 5746 5747 5747 5747 5748 5748 5748 5747 5748 5747 5747 5746 5745 5745 5744 5744 5743 5742 5742 5741 5740 5740 5739 5738 5738 5737
5723 5725 5726 5727 5730 5730 5730 5731 5732 5733 5734 5734 5735 5736 5737 5737 5738 5739 5739 5739 5740 5741 5742 5742 5741 5741 5741 5741 5741 5741 5740 5739 5738 5738 5737 5736 5735 5734 5734 5733 5733 5733 5732 5731
5717 5718 5719 5720 5721 5722 5723 5724 5725 5726 5727 5728 5728 5729 5730 5730 5731 5732 5732 5733 5734 5735 5735 5735 5735 5735 5735 5735 5735 5734 5734 5733 5732 5732 5731 5730 5729 5729 5728 5727 5727 5727 5726 5725
5711 5711 5712 5713 5714 5716 5717 5718 5719 5719 5720 5721 5721 5722 5722 5723 5724 5725 5725 5726 5727 5728 5728 5728 5728 5728 5728 5729 5728 5728 5728 5727 5726 5726 5725 5724 5724 5723 5722 5722 5721 5721 5720 5719
5705 5705 5706 5707 5708 5709 5710 5711 5712 5712 5713 5714 5714 5715 5715 5716 5717 5717 5718 5719 5720 5720 5721 5721 5722 5722 5722 5722 5722 5722 5721 5721 5720 5720 5719 5719 5718 5718 5717 5716 5716 5715 5714 5712